Location: Clanezzo
(45.7500°N, 9.6000°E)
Time: 14:02:42
(UTC+00:00)

Okean 2 Rocket - Pass Details

Date: 12 May 2021
Orbit: 617 x 641 km, 82.5° (Epoch: 19 June)

Event Time Altitude Azimuth Distance (km) Brightness Sun altitude
Rises 23:37:57 0° 352° (N) 2,902 7.8 -25.7°
Reaches altitude 10° 23:40:12 10° 354° (N) 1,991 6.6 -25.7°
Enters shadow 23:44:15 71° 35° (NE) 658 3.2 -25.6°
